Location: Peebles
(55.6412°N, 3.1714°W)
Time: 23:20:45
(UTC+00:00)

AO-7 - Visible Passes

Search period start: 02 December 2022 00:00
Search period end: 12 December 2022 00:00
Orbit: 1439 x 1459 km, 101.9° (Epoch: 02 December)

Date Brightness Start Highest point End Pass type
(mag) Time Alt. Az. Time Alt. Az. Time Alt. Az.
02 Dec ? 04:03:50 10° NNE 04:11:17 35° E 04:18:42 10° SSE visible
02 Dec ? 05:56:29 10° NNE 06:04:48 78° WNW 06:13:05 10° SSW visible
02 Dec ? 17:05:43 10° SSW 17:12:47 30° W 17:19:53 10° NNW visible
03 Dec ? 03:05:05 10° NE 03:10:08 17° E 03:15:10 10° ESE visible
03 Dec ? 04:56:29 10° NNE 05:04:44 61° ESE 05:12:56 10° S visible
03 Dec ? 06:49:31 10° NNE 06:57:22 49° NW 07:05:13 10° WSW visible
03 Dec ? 18:02:12 10° WSW 18:06:49 16° W 18:11:29 10° NW visible
04 Dec ? 03:56:51 10° NNE 04:04:07 32° E 04:11:20 10° SSE visible
04 Dec ? 05:49:24 10° NNE 05:57:45 83° WNW 06:06:04 10° SSW visible
04 Dec ? 16:58:21 10° SSW 17:05:36 33° W 17:12:54 10° NNW visible
05 Dec ? 02:58:20 10° NE 03:02:53 15° E 03:07:25 10° ESE visible
05 Dec ? 04:49:26 10° NNE 04:57:37 57° ESE 05:05:46 10° S visible
05 Dec ? 06:42:26 10° NNE 06:50:23 52° NW 06:58:19 10° SW visible
05 Dec ? 17:54:28 10° WSW 17:59:35 17° W 18:04:42 10° NW visible
06 Dec ? 03:49:53 10° NNE 03:56:56 30° E 04:03:58 10° SSE visible
06 Dec ? 05:42:20 10° NNE 05:50:42 88° WNW 05:59:02 10° SSW visible
06 Dec ? 07:35:29 10° NNE 07:42:39 34° NW 07:49:49 10° WSW visible
06 Dec ? 16:51:01 10° SSW 16:58:26 35° W 17:05:55 10° NNW visible
07 Dec ? 02:51:40 10° NE 02:55:37 14° ENE 02:59:34 10° ESE visible
07 Dec ? 04:42:24 10° NNE 04:50:31 53° ESE 04:58:34 10° S visible
07 Dec ? 06:35:22 10° NNE 06:43:23 56° NW 06:51:24 10° SW visible
07 Dec ? 17:46:49 10° SW 17:52:21 19° W 17:57:54 10° NW visible
08 Dec ? 03:42:55 10° NE 03:49:45 27° E 03:56:34 10° SE visible
08 Dec ? 05:35:16 10° NNE 05:43:38 87° ESE 05:51:59 10° SSW visible
08 Dec ? 07:28:24 10° NNE 07:35:42 36° NW 07:43:00 10° WSW visible
08 Dec ? 16:43:42 10° SSW 16:51:17 38° W 16:58:54 10° NNW visible
09 Dec ? 02:45:09 10° NE 02:48:21 12° ENE 02:51:33 10° E visible
09 Dec ? 04:35:22 10° NNE 04:43:23 49° E 04:51:22 10° S visible
09 Dec ? 06:28:17 10° NNE 06:36:22 59° NW 06:44:28 10° SW visible
09 Dec ? 17:39:14 10° SW 17:45:07 21° W 17:51:02 10° NW visible
10 Dec ? 03:35:58 10° NE 03:42:34 25° E 03:49:07 10° SE visible
10 Dec ? 05:28:12 10° NNE 05:36:34 82° ESE 05:44:55 10° SSW visible
10 Dec ? 07:21:20 10° NNE 07:28:44 38° NW 07:36:09 10° WSW visible
10 Dec ? 16:36:25 10° SSW 16:44:08 41° W 16:51:54 10° NNW visible
11 Dec ? 02:38:55 10° ENE 02:41:04 11° ENE 02:43:14 10° E visible
11 Dec ? 04:28:20 10° NNE 04:36:16 45° E 04:44:08 10° S visible
11 Dec ? 06:21:12 10° NNE 06:29:22 63° WNW 06:37:31 10° SW visible
11 Dec ? 17:31:41 10° SW 17:37:54 23° W 17:44:09 10° NW visible
